Location: Liberec
(50.7830°N, 15.0500°E)
Time: 03:38:06
(UTC+02:00)

ISS - Pass Details

Date: 23 May 2021
Orbit: 417 x 422 km, 51.6° (Epoch: 13 June)

Event Time Altitude Azimuth Distance (km) Brightness Sun altitude
Rises 00:34:09 0° 285° (WNW) 2,370 0.3 -18.5°
Reaches altitude 10° 00:36:22 10° 276° (W) 1,504 -0.8 -18.5°
Enters shadow 00:38:13 25° 253° (WSW) 893 -2.3 -18.5°
